Time,TemperatureF,DewpointF,PressureIn,WindDirection,WindDirectionDegrees,WindSpeedMPH,WindSpeedGustMPH,Humidity,HourlyPrecipIn,Conditions,Clouds,dailyrainin,SolarRadiationWatts/m^2,SoftwareType,DateUTC
2013-02-20 00:00:00,42.9,42.1,29.61,West,265,3.0,4.0,97,0.00,,,0.33,0,Wunderground v.1.15,2013-02-20 05:00:00,
2013-02-20 00:06:00,42.8,42.0,29.61,West,274,3.0,8.0,97,0.00,,,0.33,0,Wunderground v.1.15,2013-02-20 05:06:00,
2013-02-20 00:10:00,42.5,41.7,29.61,West,279,3.0,6.0,97,0.00,,,0.33,0,Wunderground v.1.15,2013-02-20 05:10:00,
2013-02-20 00:12:00,42.3,41.5,29.61,WSW,249,4.0,6.0,97,0.00,,,0.33,0,Wunderground v.1.15,2013-02-20 05:12:00,
2013-02-20 00:18:00,42.2,41.4,29.61,WSW,239,5.0,7.0,97,0.00,,,0.33,0,Wunderground v.1.15,2013-02-20 05:18:00,
2013-02-20 00:24:00,42.1,41.0,29.61,SW,235,4.0,6.0,96,0.00,,,0.33,0,Wunderground v.1.15,2013-02-20 05:24:00,
2013-02-20 00:30:00,42.1,41.0,29.61,WSW,253,3.0,3.0,96,0.00,,,0.33,0,Wunderground v.1.15,2013-02-20 05:30:00,
2013-02-20 00:36:00,41.9,40.6,29.60,West,262,2.0,6.0,95,0.00,,,0.33,0,Wunderground v.1.15,2013-02-20 05:36:00,
2013-02-20 00:42:00,41.8,40.5,29.60,West,261,2.0,5.0,95,0.00,,,0.33,0,Wunderground v.1.15,2013-02-20 05:42:00,
2013-02-20 00:48:00,41.6,40.3,29.58,West,261,2.0,6.0,95,0.00,,,0.33,0,Wunderground v.1.15,2013-02-20 05:48:00,
2013-02-20 00:54:00,41.5,40.2,29.58,West,261,2.0,6.0,95,0.00,,,0.33,0,Wunderground v.1.15,2013-02-20 05:54:00,
2013-02-20 01:00:00,41.3,40.0,29.58,West,261,1.0,1.0,95,0.00,,,0.33,0,Wunderground v.1.15,2013-02-20 06:00:00,
2013-02-20 01:06:00,41.2,39.6,29.58,West,261,1.0,6.0,94,0.00,,,0.33,0,Wunderground v.1.15,2013-02-20 06:06:00,
2013-02-20 01:12:00,41.1,39.5,29.58,West,261,1.0,1.0,94,0.00,,,0.33,0,Wunderground v.1.15,2013-02-20 06:12:00,
2013-02-20 01:18:00,41.1,39.5,29.56,West,261,0.0,1.0,94,0.00,,,0.33,0,Wunderground v.1.15,2013-02-20 06:18:00,
2013-02-20 01:24:00,40.8,39.2,29.56,West,261,1.0,4.0,94,0.00,,,0.33,0,Wunderground v.1.15,2013-02-20 06:24:00,
2013-02-20 01:30:00,40.5,38.9,29.56,West,259,2.0,4.0,94,0.00,,,0.33,0,Wunderground v.1.15,2013-02-20 06:30:00,
2013-02-20 01:36:00,40.3,39.0,29.58,West,267,3.0,4.0,95,0.00,,,0.33,0,Wunderground v.1.15,2013-02-20 06:36:00,
2013-02-20 01:42:00,40.5,38.9,29.58,WSW,249,3.0,4.0,94,0.00,,,0.33,0,Wunderground v.1.15,2013-02-20 06:42:00,
2013-02-20 01:48:00,40.3,38.7,29.58,WSW,249,3.0,4.0,94,0.00,,,0.33,0,Wunderground v.1.15,2013-02-20 06:48:00,
2013-02-20 01:54:00,40.3,38.7,29.58,SSW,210,3.0,4.0,94,0.00,,,0.33,0,Wunderground v.1.15,2013-02-20 06:54:00,
2013-02-20 02:00:00,40.2,38.6,29.58,WSW,249,4.0,4.0,94,0.00,,,0.33,0,Wunderground v.1.15,2013-02-20 07:00:00,
2013-02-20 02:06:00,39.9,38.3,29.59,WSW,240,4.0,5.0,94,0.00,,,0.33,0,Wunderground v.1.15,2013-02-20 07:06:00,
2013-02-20 02:12:00,39.8,37.9,29.59,West,259,4.0,8.0,93,0.00,,,0.33,0,Wunderground v.1.15,2013-02-20 07:12:00,
2013-02-20 02:18:00,39.6,37.7,29.59,WSW,237,5.0,8.0,93,0.00,,,0.33,0,Wunderground v.1.15,2013-02-20 07:18:00,
2013-02-20 02:24:00,39.6,37.7,29.59,WSW,257,4.0,7.0,93,0.00,,,0.33,0,Wunderground v.1.15,2013-02-20 07:24:00,
2013-02-20 02:30:00,39.5,37.4,29.59,SW,227,4.0,4.0,92,0.00,,,0.33,0,Wunderground v.1.15,2013-02-20 07:30:00,
2013-02-20 02:36:00,39.5,37.4,29.58,SW,234,4.0,7.0,92,0.00,,,0.33,0,Wunderground v.1.15,2013-02-20 07:36:00,
2013-02-20 02:42:00,39.5,37.1,29.58,West,261,5.0,7.0,91,0.00,,,0.33,0,Wunderground v.1.15,2013-02-20 07:42:00,
2013-02-20 02:48:00,39.3,36.9,29.58,West,259,5.0,7.0,91,0.00,,,0.33,0,Wunderground v.1.15,2013-02-20 07:48:00,
2013-02-20 02:54:00,39.2,36.8,29.58,WSW,252,5.0,7.0,91,0.00,,,0.33,0,Wunderground v.1.15,2013-02-20 07:54:00,
2013-02-20 03:00:00,39.1,36.7,29.58,WSW,241,5.0,5.0,91,0.00,,,0.33,0,Wunderground v.1.15,2013-02-20 08:00:00,
2013-02-20 03:06:00,38.9,36.5,29.58,WSW,251,4.0,7.0,91,0.00,,,0.33,0,Wunderground v.1.15,2013-02-20 08:06:00,
2013-02-20 03:12:00,38.8,36.4,29.58,WSW,251,4.0,6.0,91,0.00,,,0.33,0,Wunderground v.1.15,2013-02-20 08:12:00,
2013-02-20 03:18:00,38.8,36.4,29.58,WSW,252,4.0,6.0,91,0.00,,,0.33,0,Wunderground v.1.15,2013-02-20 08:18:00,
2013-02-20 03:24:00,38.8,36.4,29.58,WSW,258,3.0,6.0,91,0.00,,,0.33,0,Wunderground v.1.15,2013-02-20 08:24:00,
2013-02-20 03:30:00,38.8,36.7,29.58,WSW,258,3.0,3.0,92,0.00,,,0.33,0,Wunderground v.1.15,2013-02-20 08:30:00,
2013-02-20 03:36:00,38.8,36.7,29.57,WSW,258,3.0,6.0,92,0.00,,,0.33,0,Wunderground v.1.15,2013-02-20 08:36:00,
2013-02-20 03:42:00,38.8,36.7,29.57,SW,224,3.0,7.0,92,0.00,,,0.33,0,Wunderground v.1.15,2013-02-20 08:42:00,
2013-02-20 03:48:00,38.8,36.4,29.58,SW,222,4.0,7.0,91,0.00,,,0.33,0,Wunderground v.1.15,2013-02-20 08:48:00,
2013-02-20 03:54:00,38.0,35.0,29.58,West,259,7.0,12.0,89,0.00,,,0.33,0,Wunderground v.1.15,2013-02-20 08:54:00,
2013-02-20 04:00:00,37.5,33.7,29.58,West,279,9.0,9.0,86,0.00,,,0.33,0,Wunderground v.1.15,2013-02-20 09:00:00,
2013-02-20 04:06:00,37.0,32.6,29.58,West,274,7.0,10.0,84,0.00,,,0.00,0,Wunderground v.1.15,2013-02-20 09:06:00,
2013-02-20 04:12:00,36.8,31.5,29.58,West,261,7.0,8.0,81,0.00,,,0.00,0,Wunderground v.1.15,2013-02-20 09:12:00,
2013-02-20 04:18:00,36.5,30.3,29.59,West,277,8.0,9.0,78,0.00,,,0.00,0,Wunderground v.1.15,2013-02-20 09:18:00,
2013-02-20 04:24:00,36.5,30.0,29.59,West,265,8.0,8.0,77,0.00,,,0.00,0,Wunderground v.1.15,2013-02-20 09:24:00,
2013-02-20 04:30:00,36.3,29.8,29.59,WSW,258,6.0,6.0,77,0.00,,,0.00,0,Wunderground v.1.15,2013-02-20 09:30:00,
2013-02-20 04:36:00,36.2,30.0,29.60,West,270,4.0,7.0,78,0.00,,,0.00,0,Wunderground v.1.15,2013-02-20 09:36:00,
2013-02-20 04:42:00,36.0,30.1,29.60,West,278,5.0,7.0,79,0.00,,,0.00,0,Wunderground v.1.15,2013-02-20 09:42:00,
2013-02-20 04:48:00,35.9,30.3,29.60,West,277,5.0,7.0,80,0.00,,,0.00,0,Wunderground v.1.15,2013-02-20 09:48:00,
2013-02-20 04:54:00,35.6,29.7,29.60,West,272,5.0,9.0,79,0.00,,,0.00,0,Wunderground v.1.15,2013-02-20 09:54:00,
2013-02-20 05:00:00,35.3,28.5,29.60,West,264,7.0,9.0,76,0.00,,,0.00,0,Wunderground v.1.15,2013-02-20 10:00:00,
2013-02-20 05:06:00,35.3,28.2,29.61,West,265,8.0,11.0,75,0.00,,,0.00,0,Wunderground v.1.15,2013-02-20 10:06:00,
2013-02-20 05:12:00,35.2,28.1,29.61,West,270,6.0,9.0,75,0.00,,,0.00,0,Wunderground v.1.15,2013-02-20 10:12:00,
2013-02-20 05:18:00,35.0,27.9,29.61,West,277,7.0,9.0,75,0.00,,,0.00,0,Wunderground v.1.15,2013-02-20 10:18:00,
2013-02-20 05:24:00,34.9,27.5,29.61,WSW,243,8.0,19.0,74,0.00,,,0.00,0,Wunderground v.1.15,2013-02-20 10:24:00,
2013-02-20 05:30:00,34.7,26.9,29.61,West,274,9.0,9.0,73,0.00,,,0.00,0,Wunderground v.1.15,2013-02-20 10:30:00,
2013-02-20 05:36:00,34.4,26.3,29.61,West,263,8.0,9.0,72,0.00,,,0.00,0,Wunderground v.1.15,2013-02-20 10:36:00,
2013-02-20 05:42:00,34.3,26.5,29.61,WSW,243,8.0,9.0,73,0.00,,,0.00,0,Wunderground v.1.15,2013-02-20 10:42:00,
2013-02-20 05:48:00,34.0,25.2,29.62,WNW,282,7.0,9.0,70,0.00,,,0.00,0,Wunderground v.1.15,2013-02-20 10:48:00,
2013-02-20 05:54:00,33.8,24.7,29.62,West,273,8.0,9.0,69,0.00,,,0.00,0,Wunderground v.1.15,2013-02-20 10:54:00,
2013-02-20 06:00:00,33.7,23.9,29.62,West,267,8.0,11.0,67,0.00,,,0.00,0,Wunderground v.1.15,2013-02-20 11:00:00,
2013-02-20 06:06:00,33.7,23.2,29.62,West,262,10.0,24.0,65,0.00,,,0.00,0,Wunderground v.1.15,2013-02-20 11:06:00,
2013-02-20 06:12:00,33.5,23.0,29.62,WNW,291,9.0,24.0,65,0.00,,,0.00,0,Wunderground v.1.15,2013-02-20 11:12:00,
2013-02-20 06:18:00,33.4,22.9,29.63,West,277,7.0,24.0,65,0.00,,,0.00,0,Wunderground v.1.15,2013-02-20 11:18:00,
2013-02-20 06:24:00,33.2,22.7,29.63,WNW,291,6.0,24.0,65,0.00,,,0.00,0,Wunderground v.1.15,2013-02-20 11:24:00,
2013-02-20 06:30:00,33.2,22.3,29.63,West,271,7.0,24.0,64,0.00,,,0.00,0,Wunderground v.1.15,2013-02-20 11:30:00,
2013-02-20 06:36:00,33.2,22.3,29.63,WNW,288,7.0,24.0,64,0.00,,,0.00,0,Wunderground v.1.15,2013-02-20 11:36:00,
2013-02-20 06:42:00,33.2,22.3,29.63,West,270,6.0,24.0,64,0.00,,,0.00,7,Wunderground v.1.15,2013-02-20 11:42:00,
2013-02-20 06:48:00,33.1,22.2,29.64,West,272,6.0,24.0,64,0.00,,,0.00,11,Wunderground v.1.15,2013-02-20 11:48:00,
2013-02-20 06:54:00,33.1,21.5,29.64,WSW,250,8.0,24.0,62,0.00,,,0.00,14,Wunderground v.1.15,2013-02-20 11:54:00,
2013-02-20 07:00:00,32.9,21.3,29.64,WSW,247,8.0,8.0,62,0.00,,,0.00,21,Wunderground v.1.15,2013-02-20 12:00:00,
2013-02-20 07:06:00,32.8,20.8,29.65,WSW,253,9.0,24.0,61,0.00,,,0.00,25,Wunderground v.1.15,2013-02-20 12:06:00,
2013-02-20 07:12:00,32.5,19.3,29.65,WSW,244,8.0,9.0,58,0.00,,,0.00,28,Wunderground v.1.15,2013-02-20 12:12:00,
2013-02-20 07:18:00,32.4,18.8,29.67,West,264,9.0,19.0,57,0.00,,,0.00,32,Wunderground v.1.15,2013-02-20 12:18:00,
2013-02-20 07:24:00,32.1,19.0,29.67,West,276,8.0,9.0,58,0.00,,,0.00,35,Wunderground v.1.15,2013-02-20 12:24:00,
2013-02-20 07:30:00,31.9,18.4,29.67,WSW,252,7.0,9.0,57,0.00,,,0.00,33,Wunderground v.1.15,2013-02-20 12:30:00,
2013-02-20 07:36:00,31.8,18.3,29.67,WSW,248,9.0,9.0,57,0.00,,,0.00,28,Wunderground v.1.15,2013-02-20 12:36:00,
2013-02-20 07:42:00,31.5,18.0,29.67,West,266,9.0,9.0,57,0.00,,,0.00,37,Wunderground v.1.15,2013-02-20 12:42:00,
2013-02-20 07:48:00,31.5,18.0,29.67,WSW,255,9.0,9.0,57,0.00,,,0.00,65,Wunderground v.1.15,2013-02-20 12:48:00,
2013-02-20 07:54:00,31.8,17.9,29.67,NW,310,8.0,9.0,56,0.00,,,0.00,56,Wunderground v.1.15,2013-02-20 12:54:00,
2013-02-20 08:00:00,31.8,17.9,29.67,WSW,254,7.0,11.0,56,0.00,,,0.00,81,Wunderground v.1.15,2013-02-20 13:00:00,
2013-02-20 08:06:00,31.8,17.5,29.68,WSW,249,9.0,15.0,55,0.00,,,0.00,86,Wunderground v.1.15,2013-02-20 13:06:00,
2013-02-20 08:12:00,31.9,17.5,29.68,West,272,9.0,14.0,55,0.00,,,0.00,178,Wunderground v.1.15,2013-02-20 13:12:00,
2013-02-20 08:18:00,31.9,17.5,29.68,West,280,8.0,14.0,55,0.00,,,0.00,114,Wunderground v.1.15,2013-02-20 13:18:00,
2013-02-20 08:24:00,31.9,17.1,29.68,WSW,255,9.0,14.0,54,0.00,,,0.00,163,Wunderground v.1.15,2013-02-20 13:24:00,
2013-02-20 08:30:00,31.9,17.1,29.68,WSW,240,9.0,9.0,54,0.00,,,0.00,116,Wunderground v.1.15,2013-02-20 13:30:00,
2013-02-20 08:36:00,31.9,17.1,29.68,WNW,282,10.0,14.0,54,0.00,,,0.00,104,Wunderground v.1.15,2013-02-20 13:36:00,
2013-02-20 08:42:00,32.2,17.4,29.68,WSW,250,9.0,14.0,54,0.00,,,0.00,285,Wunderground v.1.15,2013-02-20 13:42:00,
2013-02-20 08:48:00,32.2,17.4,29.68,West,275,9.0,14.0,54,0.00,,,0.00,360,Wunderground v.1.15,2013-02-20 13:48:00,
2013-02-20 08:54:00,32.4,17.2,29.68,West,267,10.0,14.0,53,0.00,,,0.00,387,Wunderground v.1.15,2013-02-20 13:54:00,
2013-02-20 09:00:00,32.5,17.2,29.68,WNW,298,9.0,15.0,53,0.00,,,0.00,431,Wunderground v.1.15,2013-02-20 14:00:00,
2013-02-20 09:06:00,32.7,17.0,29.68,WSW,242,9.0,18.0,52,0.00,,,0.00,448,Wunderground v.1.15,2013-02-20 14:06:00,
2013-02-20 09:12:00,32.8,17.1,29.68,West,274,9.0,10.0,52,0.00,,,0.00,478,Wunderground v.1.15,2013-02-20 14:12:00,
2013-02-20 09:18:00,32.9,17.2,29.68,WNW,288,8.0,13.0,52,0.00,,,0.00,512,Wunderground v.1.15,2013-02-20 14:18:00,
2013-02-20 09:24:00,32.9,16.7,29.68,WSW,250,9.0,13.0,51,0.00,,,0.00,529,Wunderground v.1.15,2013-02-20 14:24:00,
2013-02-20 09:30:00,33.1,17.4,29.68,WSW,257,9.0,13.0,52,0.00,,,0.00,548,Wunderground v.1.15,2013-02-20 14:30:00,
2013-02-20 09:36:00,33.2,17.0,29.68,WSW,254,10.0,13.0,51,0.00,,,0.00,563,Wunderground v.1.15,2013-02-20 14:36:00,
2013-02-20 09:42:00,33.4,17.2,29.68,WNW,303,9.0,11.0,51,0.00,,,0.00,487,Wunderground v.1.15,2013-02-20 14:42:00,
2013-02-20 09:48:00,33.5,16.8,29.68,West,263,9.0,15.0,50,0.00,,,0.00,524,Wunderground v.1.15,2013-02-20 14:48:00,
2013-02-20 09:54:00,33.8,16.6,29.68,West,268,8.0,13.0,49,0.00,,,0.00,671,Wunderground v.1.15,2013-02-20 14:54:00,
2013-02-20 10:00:00,33.4,16.3,29.68,NNW,327,9.0,9.0,49,0.00,,,0.00,244,Wunderground v.1.15,2013-02-20 15:00:00,
2013-02-20 10:06:00,33.1,16.0,29.68,SW,231,10.0,16.0,49,0.00,,,0.00,271,Wunderground v.1.15,2013-02-20 15:06:00,
2013-02-20 10:12:00,33.1,15.5,29.68,NW,317,11.0,16.0,48,0.00,,,0.00,237,Wunderground v.1.15,2013-02-20 15:12:00,
2013-02-20 10:18:00,33.4,15.8,29.69,NW,311,10.0,16.0,48,0.00,,,0.00,299,Wunderground v.1.15,2013-02-20 15:18:00,
2013-02-20 10:24:00,33.4,15.8,29.69,WSW,239,10.0,18.0,48,0.00,,,0.00,290,Wunderground v.1.15,2013-02-20 15:24:00,
2013-02-20 10:30:00,33.1,15.0,29.69,WSW,244,11.0,16.0,47,0.00,,,0.00,241,Wunderground v.1.15,2013-02-20 15:30:00,
2013-02-20 10:36:00,33.1,15.0,29.69,SW,232,11.0,16.0,47,0.00,,,0.00,708,Wunderground v.1.15,2013-02-20 15:36:00,
2013-02-20 10:42:00,33.5,14.9,29.69,West,280,11.0,16.0,46,0.00,,,0.00,833,Wunderground v.1.15,2013-02-20 15:42:00,
2013-02-20 10:48:00,33.8,15.2,29.69,West,262,9.0,16.0,46,0.00,,,0.00,480,Wunderground v.1.15,2013-02-20 15:48:00,
2013-02-20 10:54:00,34.0,14.9,29.69,West,276,8.0,16.0,45,0.00,,,0.00,338,Wunderground v.1.15,2013-02-20 15:54:00,
2013-02-20 11:00:00,34.0,14.3,29.69,WNW,290,8.0,16.0,44,0.00,,,0.00,399,Wunderground v.1.15,2013-02-20 16:00:00,
2013-02-20 11:06:00,34.1,14.9,29.69,West,273,9.0,23.0,45,0.00,,,0.00,302,Wunderground v.1.15,2013-02-20 16:06:00,
2013-02-20 11:12:00,33.8,15.2,29.69,WSW,249,8.0,23.0,46,0.00,,,0.00,200,Wunderground v.1.15,2013-02-20 16:12:00,
2013-02-20 11:18:00,33.5,15.9,29.69,NW,307,9.0,23.0,48,0.00,,,0.00,236,Wunderground v.1.15,2013-02-20 16:18:00,
2013-02-20 11:24:00,33.7,14.6,29.69,NW,309,8.0,23.0,45,0.00,,,0.00,229,Wunderground v.1.15,2013-02-20 16:24:00,
2013-02-20 11:30:00,33.5,13.9,29.69,WSW,255,11.0,23.0,44,0.00,,,0.00,965,Wunderground v.1.15,2013-02-20 16:30:00,
2013-02-20 11:36:00,33.8,14.2,29.69,WSW,244,10.0,29.0,44,0.00,,,0.00,274,Wunderground v.1.15,2013-02-20 16:36:00,
2013-02-20 11:42:00,33.4,14.3,29.69,NW,311,12.0,14.0,45,0.00,,,0.00,237,Wunderground v.1.15,2013-02-20 16:42:00,
2013-02-20 11:48:00,33.4,14.3,29.68,WNW,289,11.0,23.0,45,0.00,,,0.00,279,Wunderground v.1.15,2013-02-20 16:48:00,
2013-02-20 11:54:00,33.4,13.8,29.68,West,262,10.0,23.0,44,0.00,,,0.00,357,Wunderground v.1.15,2013-02-20 16:54:00,
2013-02-20 12:00:00,33.5,13.4,29.68,West,280,12.0,12.0,43,0.00,,,0.00,445,Wunderground v.1.15,2013-02-20 17:00:00,
2013-02-20 12:06:00,33.7,13.0,29.68,WNW,293,10.0,23.0,42,0.00,,,0.00,928,Wunderground v.1.15,2013-02-20 17:06:00,
2013-02-20 12:12:00,33.8,12.6,29.68,West,261,10.0,16.0,41,0.00,,,0.00,218,Wunderground v.1.15,2013-02-20 17:12:00,
2013-02-20 12:18:00,33.5,12.3,29.68,WSW,257,10.0,16.0,41,0.00,,,0.00,316,Wunderground v.1.15,2013-02-20 17:18:00,
2013-02-20 12:24:00,33.2,12.0,29.68,West,271,10.0,16.0,41,0.00,,,0.00,304,Wunderground v.1.15,2013-02-20 17:24:00,
2013-02-20 12:30:00,33.4,12.2,29.68,WSW,257,11.0,20.0,41,0.00,,,0.00,403,Wunderground v.1.15,2013-02-20 17:30:00,
2013-02-20 12:36:00,33.2,12.0,29.68,WNW,282,11.0,20.0,41,0.00,,,0.00,306,Wunderground v.1.15,2013-02-20 17:36:00,
2013-02-20 12:42:00,33.4,12.2,29.68,WSW,243,11.0,16.0,41,0.00,,,0.00,250,Wunderground v.1.15,2013-02-20 17:42:00,
2013-02-20 12:48:00,33.2,12.0,29.67,West,266,11.0,18.0,41,0.00,,,0.00,260,Wunderground v.1.15,2013-02-20 17:48:00,
2013-02-20 12:54:00,33.2,12.0,29.67,WNW,295,10.0,16.0,41,0.00,,,0.00,209,Wunderground v.1.15,2013-02-20 17:54:00,
2013-02-20 13:00:00,33.2,12.0,29.67,West,264,9.0,9.0,41,0.00,,,0.00,244,Wunderground v.1.15,2013-02-20 18:00:00,
2013-02-20 13:06:00,33.1,11.4,29.67,WNW,291,9.0,21.0,40,0.00,,,0.00,237,Wunderground v.1.15,2013-02-20 18:06:00,
2013-02-20 13:12:00,33.1,11.4,29.67,WSW,253,10.0,18.0,40,0.00,,,0.00,237,Wunderground v.1.15,2013-02-20 18:12:00,
2013-02-20 13:18:00,33.1,11.4,29.67,NW,319,10.0,26.0,40,0.00,,,0.00,214,Wunderground v.1.15,2013-02-20 18:18:00,
2013-02-20 13:24:00,32.8,11.6,29.67,NW,316,10.0,18.0,41,0.00,,,0.00,232,Wunderground v.1.15,2013-02-20 18:24:00,
2013-02-20 13:30:00,33.1,11.9,29.67,WSW,243,8.0,18.0,41,0.00,,,0.00,186,Wunderground v.1.15,2013-02-20 18:30:00,
2013-02-20 13:36:00,32.8,10.5,29.66,NNE,22,10.0,24.0,39,0.00,,,0.00,221,Wunderground v.1.15,2013-02-20 18:36:00,
2013-02-20 13:42:00,32.8,11.1,29.66,NW,304,10.0,20.0,40,0.00,,,0.00,174,Wunderground v.1.15,2013-02-20 18:42:00,
2013-02-20 13:48:00,32.8,11.1,29.67,West,261,10.0,20.0,40,0.00,,,0.00,160,Wunderground v.1.15,2013-02-20 18:48:00,
2013-02-20 13:54:00,32.8,11.1,29.67,WSW,251,9.0,18.0,40,0.00,,,0.00,174,Wunderground v.1.15,2013-02-20 18:54:00,
2013-02-20 14:00:00,32.9,11.2,29.67,NW,306,8.0,18.0,40,0.00,,,0.00,174,Wunderground v.1.15,2013-02-20 19:00:00,
2013-02-20 14:06:00,32.8,10.5,29.67,West,265,10.0,18.0,39,0.00,,,0.00,165,Wunderground v.1.15,2013-02-20 19:06:00,
2013-02-20 14:12:00,32.7,9.8,29.67,WNW,284,11.0,12.0,38,0.00,,,0.00,181,Wunderground v.1.15,2013-02-20 19:12:00,
2013-02-20 14:18:00,32.7,10.4,29.67,West,278,10.0,14.0,39,0.00,,,0.00,202,Wunderground v.1.15,2013-02-20 19:18:00,
2013-02-20 14:24:00,32.7,9.8,29.67,WSW,243,10.0,14.0,38,0.00,,,0.00,153,Wunderground v.1.15,2013-02-20 19:24:00,
2013-02-20 14:30:00,32.8,10.5,29.67,West,265,9.0,14.0,39,0.00,,,0.00,144,Wunderground v.1.15,2013-02-20 19:30:00,
2013-02-20 14:36:00,32.5,9.7,29.67,West,261,10.0,22.0,38,0.00,,,0.00,137,Wunderground v.1.15,2013-02-20 19:36:00,
2013-02-20 14:42:00,32.5,9.7,29.67,WNW,283,12.0,18.0,38,0.00,,,0.00,111,Wunderground v.1.15,2013-02-20 19:42:00,
2013-02-20 14:48:00,32.4,10.2,29.67,WSW,254,11.0,18.0,39,0.00,,,0.00,84,Wunderground v.1.15,2013-02-20 19:48:00,
2013-02-20 14:54:00,32.2,9.4,29.67,WNW,292,10.0,15.0,38,0.00,,,0.00,148,Wunderground v.1.15,2013-02-20 19:54:00,
2013-02-20 15:00:00,32.4,9.6,29.67,NW,310,9.0,9.0,38,0.00,,,0.00,188,Wunderground v.1.15,2013-02-20 20:00:00,
2013-02-20 15:06:00,32.4,9.6,29.68,West,259,11.0,20.0,38,0.00,,,0.00,107,Wunderground v.1.15,2013-02-20 20:06:00,
2013-02-20 15:12:00,32.2,9.4,29.68,WNW,299,10.0,20.0,38,0.00,,,0.00,156,Wunderground v.1.15,2013-02-20 20:12:00,
2013-02-20 15:18:00,32.7,8.6,29.68,West,265,10.0,20.0,36,0.00,,,0.00,378,Wunderground v.1.15,2013-02-20 20:18:00,
2013-02-20 15:24:00,33.1,8.4,29.68,WSW,250,10.0,20.0,35,0.00,,,0.00,367,Wunderground v.1.15,2013-02-20 20:24:00,
2013-02-20 15:30:00,33.2,8.5,29.68,West,275,11.0,20.0,35,0.00,,,0.00,327,Wunderground v.1.15,2013-02-20 20:30:00,
2013-02-20 15:36:00,33.1,7.7,29.69,West,277,12.0,20.0,34,0.00,,,0.00,295,Wunderground v.1.15,2013-02-20 20:36:00,
2013-02-20 15:42:00,32.9,8.2,29.69,West,281,11.0,14.0,35,0.00,,,0.00,262,Wunderground v.1.15,2013-02-20 20:42:00,
2013-02-20 15:48:00,32.9,7.6,29.69,SW,227,11.0,20.0,34,0.00,,,0.00,237,Wunderground v.1.15,2013-02-20 20:48:00,
2013-02-20 15:54:00,32.9,7.6,29.69,WSW,256,9.0,20.0,34,0.00,,,0.00,128,Wunderground v.1.15,2013-02-20 20:54:00,
2013-02-20 16:00:00,32.8,7.5,29.69,WNW,288,10.0,21.0,34,0.00,,,0.00,200,Wunderground v.1.15,2013-02-20 21:00:00,
2013-02-20 16:06:00,32.5,7.2,29.69,WNW,287,12.0,21.0,34,0.00,,,0.00,158,Wunderground v.1.15,2013-02-20 21:06:00,
2013-02-20 16:12:00,32.2,7.6,29.69,WNW,296,12.0,20.0,35,0.00,,,0.00,148,Wunderground v.1.15,2013-02-20 21:12:00,
2013-02-20 16:18:00,32.1,7.5,29.69,West,268,10.0,20.0,35,0.00,,,0.00,88,Wunderground v.1.15,2013-02-20 21:18:00,
2013-02-20 16:24:00,31.8,7.8,29.69,WNW,301,11.0,20.0,36,0.00,,,0.00,54,Wunderground v.1.15,2013-02-20 21:24:00,
2013-02-20 16:30:00,31.6,7.0,29.69,West,263,10.0,10.0,35,0.00,,,0.00,40,Wunderground v.1.15,2013-02-20 21:30:00,
2013-02-20 16:36:00,31.5,7.6,29.70,WNW,296,11.0,20.0,36,0.00,,,0.00,51,Wunderground v.1.15,2013-02-20 21:36:00,
2013-02-20 16:42:00,31.3,7.4,29.70,West,280,11.0,20.0,36,0.00,,,0.00,44,Wunderground v.1.15,2013-02-20 21:42:00,
2013-02-20 16:48:00,31.2,7.3,29.70,WNW,296,10.0,20.0,36,0.00,,,0.00,37,Wunderground v.1.15,2013-02-20 21:48:00,
2013-02-20 16:54:00,31.2,7.3,29.70,NW,306,10.0,20.0,36,0.00,,,0.00,30,Wunderground v.1.15,2013-02-20 21:54:00,
2013-02-20 17:00:00,30.9,7.6,29.70,WNW,292,9.0,9.0,37,0.00,,,0.00,28,Wunderground v.1.15,2013-02-20 22:00:00,
2013-02-20 17:06:00,30.7,7.5,29.71,WNW,285,10.0,21.0,37,0.00,,,0.00,21,Wunderground v.1.15,2013-02-20 22:06:00,
2013-02-20 17:12:00,30.4,7.8,29.71,West,273,10.0,18.0,38,0.00,,,0.00,12,Wunderground v.1.15,2013-02-20 22:12:00,
2013-02-20 17:18:00,30.3,7.7,29.72,West,276,9.0,18.0,38,0.00,,,0.00,9,Wunderground v.1.15,2013-02-20 22:18:00,
2013-02-20 17:24:00,30.1,8.1,29.72,NW,315,8.0,18.0,39,0.00,,,0.00,5,Wunderground v.1.15,2013-02-20 22:24:00,
2013-02-20 17:30:00,30.0,8.0,29.72,West,279,7.0,18.0,39,0.00,,,0.00,0,Wunderground v.1.15,2013-02-20 22:30:00,
2013-02-20 17:36:00,29.8,8.4,29.72,WNW,296,7.0,18.0,40,0.00,,,0.00,0,Wunderground v.1.15,2013-02-20 22:36:00,
2013-02-20 17:42:00,29.5,8.7,29.72,WNW,286,7.0,18.0,41,0.00,,,0.00,0,Wunderground v.1.15,2013-02-20 22:42:00,
2013-02-20 17:48:00,29.4,8.0,29.73,WNW,296,8.0,18.0,40,0.00,,,0.00,0,Wunderground v.1.15,2013-02-20 22:48:00,
2013-02-20 17:54:00,29.3,7.9,29.73,WSW,248,9.0,18.0,40,0.00,,,0.00,0,Wunderground v.1.15,2013-02-20 22:54:00,
2013-02-20 18:00:00,29.3,8.5,29.73,WNW,302,8.0,8.0,41,0.00,,,0.00,0,Wunderground v.1.15,2013-02-20 23:00:00,
2013-02-20 18:06:00,29.1,8.3,29.73,West,263,8.0,25.0,41,0.00,,,0.00,0,Wunderground v.1.15,2013-02-20 23:06:00,
2013-02-20 18:12:00,29.1,8.3,29.73,West,273,11.0,25.0,41,0.00,,,0.00,0,Wunderground v.1.15,2013-02-20 23:12:00,
2013-02-20 18:18:00,29.0,8.7,29.74,WSW,242,9.0,25.0,42,0.00,,,0.00,0,Wunderground v.1.15,2013-02-20 23:18:00,
2013-02-20 18:24:00,28.8,8.0,29.74,West,261,10.0,25.0,41,0.00,,,0.00,0,Wunderground v.1.15,2013-02-20 23:24:00,
2013-02-20 18:30:00,28.8,8.0,29.74,West,267,10.0,25.0,41,0.00,,,0.00,0,Wunderground v.1.15,2013-02-20 23:30:00,
2013-02-20 18:36:00,28.7,7.9,29.74,ENE,70,11.0,25.0,41,0.00,,,0.00,0,Wunderground v.1.15,2013-02-20 23:36:00,
2013-02-20 18:42:00,28.7,8.5,29.74,WNW,291,10.0,25.0,42,0.00,,,0.00,0,Wunderground v.1.15,2013-02-20 23:42:00,
2013-02-20 18:48:00,28.5,8.8,29.75,West,279,8.0,25.0,43,0.00,,,0.00,0,Wunderground v.1.15,2013-02-20 23:48:00,
2013-02-20 18:54:00,28.4,8.7,29.75,WNW,302,5.0,25.0,43,0.00,,,0.00,0,Wunderground v.1.15,2013-02-20 23:54:00,
2013-02-20 19:00:00,28.4,8.7,29.75,WNW,287,7.0,25.0,43,0.00,,,0.00,0,Wunderground v.1.15,2013-02-21 00:00:00,
2013-02-20 19:06:00,28.4,8.7,29.75,SSW,211,10.0,25.0,43,0.00,,,0.00,0,Wunderground v.1.15,2013-02-21 00:06:00,
2013-02-20 19:12:00,28.2,8.5,29.75,West,269,9.0,14.0,43,0.00,,,0.00,0,Wunderground v.1.15,2013-02-21 00:12:00,
2013-02-20 19:18:00,28.2,8.0,29.75,West,261,9.0,14.0,42,0.00,,,0.00,0,Wunderground v.1.15,2013-02-21 00:18:00,
2013-02-20 19:24:00,28.2,8.5,29.75,WNW,300,9.0,14.0,43,0.00,,,0.00,0,Wunderground v.1.15,2013-02-21 00:24:00,
2013-02-20 19:30:00,28.1,9.0,29.75,WSW,252,8.0,14.0,44,0.00,,,0.00,0,Wunderground v.1.15,2013-02-21 00:30:00,
2013-02-20 19:36:00,28.1,8.4,29.75,West,273,9.0,14.0,43,0.00,,,0.00,0,Wunderground v.1.15,2013-02-21 00:36:00,
2013-02-20 19:42:00,28.1,8.4,29.75,West,261,8.0,13.0,43,0.00,,,0.00,0,Wunderground v.1.15,2013-02-21 00:42:00,
2013-02-20 19:48:00,28.1,9.0,29.75,WSW,253,8.0,14.0,44,0.00,,,0.00,0,Wunderground v.1.15,2013-02-21 00:48:00,
2013-02-20 19:54:00,27.9,8.8,29.75,WNW,299,7.0,14.0,44,0.00,,,0.00,0,Wunderground v.1.15,2013-02-21 00:54:00,
2013-02-20 20:00:00,27.9,9.3,29.75,West,269,7.0,14.0,45,0.00,,,0.00,0,Wunderground v.1.15,2013-02-21 01:00:00,
2013-02-20 20:06:00,27.9,8.8,29.76,WNW,301,7.0,14.0,44,0.00,,,0.00,0,Wunderground v.1.15,2013-02-21 01:06:00,
2013-02-20 20:12:00,28.1,9.0,29.76,WSW,246,7.0,11.0,44,0.00,,,0.00,0,Wunderground v.1.15,2013-02-21 01:12:00,
2013-02-20 20:18:00,28.1,9.5,29.76,West,277,7.0,11.0,45,0.00,,,0.00,0,Wunderground v.1.15,2013-02-21 01:18:00,
2013-02-20 20:24:00,28.1,9.5,29.76,West,263,7.0,11.0,45,0.00,,,0.00,0,Wunderground v.1.15,2013-02-21 01:24:00,
2013-02-20 20:30:00,28.1,9.9,29.76,WNW,292,7.0,11.0,46,0.00,,,0.00,0,Wunderground v.1.15,2013-02-21 01:30:00,
2013-02-20 20:36:00,28.1,9.5,29.76,WSW,244,8.0,11.0,45,0.00,,,0.00,0,Wunderground v.1.15,2013-02-21 01:36:00,
2013-02-20 20:42:00,27.9,9.8,29.76,West,272,9.0,12.0,46,0.00,,,0.00,0,Wunderground v.1.15,2013-02-21 01:42:00,
2013-02-20 20:48:00,27.9,10.2,29.77,WNW,300,8.0,12.0,47,0.00,,,0.00,0,Wunderground v.1.15,2013-02-21 01:48:00,
2013-02-20 20:54:00,27.8,10.2,29.77,West,279,7.0,11.0,47,0.00,,,0.00,0,Wunderground v.1.15,2013-02-21 01:54:00,
2013-02-20 21:00:00,27.6,10.0,29.77,West,276,7.0,7.0,47,0.00,,,0.00,0,Wunderground v.1.15,2013-02-21 02:00:00,
2013-02-20 21:06:00,27.6,10.4,29.77,NW,319,8.0,18.0,48,0.00,,,0.00,0,Wunderground v.1.15,2013-02-21 02:06:00,
2013-02-20 21:12:00,27.5,10.4,29.77,WNW,297,7.0,18.0,48,0.00,,,0.00,0,Wunderground v.1.15,2013-02-21 02:12:00,
2013-02-20 21:18:00,27.3,10.6,29.78,WNW,296,7.0,18.0,49,0.00,,,0.00,0,Wunderground v.1.15,2013-02-21 02:18:00,
2013-02-20 21:24:00,27.3,10.2,29.78,West,275,7.0,18.0,48,0.00,,,0.00,0,Wunderground v.1.15,2013-02-21 02:24:00,
2013-02-20 21:30:00,27.2,10.5,29.78,WNW,296,7.0,18.0,49,0.00,,,0.00,0,Wunderground v.1.15,2013-02-21 02:30:00,
2013-02-20 21:36:00,27.2,10.5,29.78,West,261,7.0,18.0,49,0.00,,,0.00,0,Wunderground v.1.15,2013-02-21 02:36:00,
2013-02-20 21:42:00,27.0,10.4,29.78,WSW,245,7.0,10.0,49,0.00,,,0.00,0,Wunderground v.1.15,2013-02-21 02:42:00,
2013-02-20 21:48:00,27.0,10.4,29.78,West,279,7.0,18.0,49,0.00,,,0.00,0,Wunderground v.1.15,2013-02-21 02:48:00,
2013-02-20 21:54:00,26.9,10.7,29.78,West,267,7.0,18.0,50,0.00,,,0.00,0,Wunderground v.1.15,2013-02-21 02:54:00,
2013-02-20 22:00:00,26.9,10.7,29.78,West,273,6.0,18.0,50,0.00,,,0.00,0,Wunderground v.1.15,2013-02-21 03:00:00,
2013-02-20 22:06:00,26.7,11.0,29.78,WNW,294,7.0,18.0,51,0.00,,,0.00,0,Wunderground v.1.15,2013-02-21 03:06:00,
2013-02-20 22:12:00,26.7,11.0,29.78,WSW,257,5.0,7.0,51,0.00,,,0.00,0,Wunderground v.1.15,2013-02-21 03:12:00,
2013-02-20 22:18:00,26.7,11.0,29.79,WSW,245,5.0,9.0,51,0.00,,,0.00,0,Wunderground v.1.15,2013-02-21 03:18:00,
2013-02-20 22:24:00,26.7,11.0,29.79,West,271,6.0,9.0,51,0.00,,,0.00,0,Wunderground v.1.15,2013-02-21 03:24:00,
2013-02-20 22:30:00,26.7,11.4,29.79,SSW,202,6.0,7.0,52,0.00,,,0.00,0,Wunderground v.1.15,2013-02-21 03:30:00,
2013-02-20 22:36:00,26.6,11.3,29.80,West,267,5.0,7.0,52,0.00,,,0.00,0,Wunderground v.1.15,2013-02-21 03:36:00,
2013-02-20 22:42:00,26.7,11.4,29.80,WSW,258,6.0,10.0,52,0.00,,,0.00,0,Wunderground v.1.15,2013-02-21 03:42:00,
2013-02-20 22:48:00,26.7,11.4,29.81,SW,236,6.0,10.0,52,0.00,,,0.00,0,Wunderground v.1.15,2013-02-21 03:48:00,
2013-02-20 22:54:00,26.7,11.4,29.81,WNW,302,6.0,8.0,52,0.00,,,0.00,0,Wunderground v.1.15,2013-02-21 03:54:00,
2013-02-20 23:00:00,26.7,11.8,29.81,WNW,296,7.0,7.0,53,0.00,,,0.00,0,Wunderground v.1.15,2013-02-21 04:00:00,
2013-02-20 23:06:00,26.7,11.8,29.81,West,265,7.0,13.0,53,0.00,,,0.00,0,Wunderground v.1.15,2013-02-21 04:06:00,
2013-02-20 23:12:00,26.7,12.3,29.81,WNW,301,6.0,13.0,54,0.00,,,0.00,0,Wunderground v.1.15,2013-02-21 04:12:00,
2013-02-20 23:18:00,26.7,12.3,29.81,WSW,240,6.0,13.0,54,0.00,,,0.00,0,Wunderground v.1.15,2013-02-21 04:18:00,
2013-02-20 23:24:00,26.9,12.5,29.81,WSW,252,7.0,13.0,54,0.00,,,0.00,0,Wunderground v.1.15,2013-02-21 04:24:00,
2013-02-20 23:30:00,27.0,12.5,29.81,WNW,288,8.0,8.0,54,0.00,,,0.00,0,Wunderground v.1.15,2013-02-21 04:30:00,
2013-02-20 23:36:00,27.0,12.5,29.81,WNW,286,8.0,13.0,54,0.00,,,0.00,0,Wunderground v.1.15,2013-02-21 04:36:00,
2013-02-20 23:42:00,27.0,12.5,29.81,West,259,6.0,10.0,54,0.00,,,0.00,0,Wunderground v.1.15,2013-02-21 04:42:00,
2013-02-20 23:48:00,27.0,13.0,29.82,West,277,7.0,13.0,55,0.00,,,0.00,0,Wunderground v.1.15,2013-02-21 04:48:00,
2013-02-20 23:54:00,27.0,12.5,29.82,WNW,288,7.0,13.0,54,0.00,,,0.00,0,Wunderground v.1.15,2013-02-21 04:54:00,